Tracking 22079 objects as of 5-Dec-2020
HD Live streaming from Space Station
objects crossing your sky now

BEIDOU 2 G8

Track BEIDOU 2 G8 now!
BEIDOU 2 G8 is classified as:


NORAD ID: 44231
Int'l Code: 2019-027A
Perigee: 35,756.5 km
Apogee: 35,828.5 km
Inclination: 0.6 °
Period: 1,436.0 minutes
Semi major axis: 42163 km
RCS: Unknown
Launch date: May 17, 2019
Source: People's Republic of China (PRC)
Launch site: Xichang Space Center, China (XSC)
aabbcc
Your satellite tracking list
Your tracking list is empty




NASA's NSSDC Master Catalog

Two Line Element Set (TLE):
1 44231U 19027A   20339.77982800 -.00000230  00000-0  00000-0 0  9997
2 44231   0.6079 305.5970 0008544 274.9442 278.7419  1.00276236  5820
Source of the keplerian elements: AFSPC